Temp
7 7 7 7 6 4 4 6 6 8 5 5 3 1 2 3 3 3 3 3 3 3 3 3 3 3 3 3 2 2 1 0 0 -0 -1 -1 -1 -1 -1 -1 -1 -1 -1 -1
1 6 6 6 7 5 5 6 5 6 6 4 3 2 2 3 3 3 3 3 2 2 2 2 2 2 1 0 0 -0 -1 -1 -1 -1 -1 -1 -1 -2 -2 -2 -2 -2 -2 -2
5 4 2 3 4 6 5 5 6 5 6 1 0 1 2 2 3 3 2 2 2 2 2 1 0 -0 -0 -1 -1 -1 -1 -1 -1 -1 -1 -2 -2 -2 -2 -2 -2 -2 -2 -2
0 2 3 6 5 6 6 3 3 2 1 1 1 2 3 3 3 2 1 1 1 0 -0 -0 -1 -1 -1 -1 -1 -1 -1 -1 -2 -2 -2 -2 -2 -2 -3 -3 -3 -3 -3 -3
3 2 4 4 3 3 4 3 2 0 -0 1 2 2 1 1 1 1 0 0 -0 -0 -1 -1 -1 -1 -1 -1 -1 -2 -2 -2 -2 -2 -3 -3 -3 -3 -3 -3 -3 -4 -4 -4
1 3 5 6 4 5 5 5 1 1 0 0 1 1 -0 1 1 0 -0 -1 -1 -1 -1 -1 -1 -1 -1 -2 -2 -2 -2 -3 -3 -3 -3 -3 -4 -4 -4 -4 -4 -5 -4 -4
4 3 3 4 3 5 5 5 1 1 1 1 -1 1 1 0 -0 -1 -1 -1 -1 -1 -1 -1 -1 -2 -2 -2 -3 -3 -3 -3 -4 -4 -4 -4 -4 -5 -5 -5 -5 -5 -5 -5
4 5 4 3 3 4 1 1 2 2 1 1 1 0 0 -0 -1 -1 -1 -1 -1 -1 -2 -2 -2 -2 -3 -3 -3 -4 -4 -5 -5 -5 -5 -5 -6 -6 -6 -6 -6 -6 -6 -6
4 5 1 2 3 2 2 2 1 1 1 0 0 -0 -0 -1 -1 -1 -2 -2 -2 -2 -2 -2 -3 -4 -4 -4 -5 -5 -5 -6 -6 -6 -6 -7 -7 -7 -7 -7 -7 -6 -6 -6
3 1 1 1 2 2 2 2 1 1 0 0 -0 -1 -1 -1 -2 -2 -2 -2 -2 -3 -3 -3 -4 -5 -5 -5 -5 -6 -6 -6 -7 -7 -7 -7 -7 -7 -7 -7 -7 -7 -7 -6
-2 -1 0 0 1 2 1 1 1 0 -0 -1 -1 -2 -2 -2 -2 -3 -3 -3 -3 -4 -4 -5 -5 -5 -5 -6 -6 -7 -7 -7 -7 -7 -7 -7 -7 -8 -8 -8 -8 -7 -7 -7
-1 1 2 1 1 1 1 0 -0 -0 -1 -1 -2 -2 -3 -3 -3 -3 -3 -4 -4 -5 -5 -5 -6 -6 -6 -7 -7 -7 -7 -7 -7 -8 -7 -8 -8 -8 -7 -8 -8 -7 -7 -7
2 2 2 1 0 0 0 -0 -1 -1 -2 -2 -2 -3 -3 -3 -3 -4 -4 -4 -5 -5 -6 -6 -6 -7 -7 -7 -7 -8 -8 -8 -8 -8 -8 -8 -8 -8 -8 -8 -7 -7 -7 -7
1 1 -1 -0 -0 -0 -1 -1 -2 -2 -2 -2 -3 -3 -3 -4 -3 -4 -5 -5 -6 -6 -7 -7 -7 -7 -7 -7 -8 -8 -8 -8 -7 -8 -8 -8 -7 -7 -7 -8 -8 -8 -7 -7
1 1 1 -0 -0 -1 -1 -2 -2 -2 -3 -3 -3 -4 -4 -4 -4 -5 -6 -6 -7 -7 -7 -7 -7 -7 -7 -8 -8 -8 -8 -8 -8 -8 -8 -8 -8 -8 -8 -8 -8 -8 -8 -8
-0 -0 -0 -0 -1 -1 -2 -2 -3 -3 -3 -4 -4 -4 -5 -5 -5 -6 -6 -6 -7 -8 -7 -7 -8 -8 -8 -8 -8 -8 -9 -9 -9 -8 -9 -9 -9 -10 -10 -11 -10 -10 -10 -10
-1 -1 -1 -1 -1 -2 -3 -3 -3 -4 -4 -4 -5 -5 -5 -6 -6 -6 -7 -7 -8 -8 -8 -8 -8 -8 -8 -8 -8 -9 -8 -8 -9 -8 -9 -10 -10 -11 -11 -11 -11 -11 -11 -10
-0 -1 -1 -2 -3 -3 -3 -4 -4 -4 -5 -5 -5 -6 -6 -6 -7 -7 -8 -8 -8 -8 -8 -8 -8 -9 -9 -8 -8 -9 -9 -9 -9 -9 -10 -10 -11 -11 -11 -11 -11 -11 -10 -10
-1 -1 -2 -2 -3 -3 -4 -4 -5 -5 -5 -5 -5 -6 -7 -7 -8 -8 -8 -9 -9 -9 -9 -9 -9 -9 -8 -9 -9 -9 -9 -9 -9 -10 -10 -11 -10 -10 -10 -10 -10 -10 -10 -10
-2 -2 -2 -3 -4 -4 -4 -4 -4 -5 -5 -6 -7 -7 -8 -8 -9 -9 -9 -9 -9 -10 -9 -9 -9 -9 -9 -9 -9 -9 -9 -10 -10 -10 -10 -10 -10 -10 -10 -10 -10 -10 -10 -10
-3 -3 -3 -4 -4 -4 -5 -5 -6 -6 -7 -8 -8 -8 -9 -9 -9 -10 -10 -10 -9 -9 -9 -9 -9 -9 -10 -9 -9 -9 -10 -10 -10 -10 -10 -10 -10 -10 -10 -10 -10 -10 -10 -10
-3 -4 -4 -4 -5 -5 -6 -6 -7 -7 -8 -8 -9 -9 -9 -10 -10 -10 -10 -10 -10 -9 -9 -9 -9 -10 -9 -9 -9 -10 -10 -10 -10 -10 -10 -10 -10 -10 -10 -10 -10 -10 -10 -10
-4 -4 -5 -5 -6 -6 -7 -7 -8 -9 -9 -9 -10 -10 -10 -11 -11 -11 -10 -10 -10 -9 -9 -9 -10 -9 -9 -9 -10 -10 -10 -10 -10 -10 -10 -10 -10 -10 -10 -10 -10 -10 -10 -10
-5 -5 -6 -6 -7 -7 -7 -8 -9 -10 -10 -10 -10 -11 -11 -11 -10 -10 -10 -10 -10 -10 -10 -10 -10 -9 -10 -10 -10 -10 -10 -10 -10 -10 -10 -10 -10 -10 -10 -10 -10 -10 -10 -10
-6 -6 -7 -7 -8 -8 -9 -10 -10 -10 -11 -11 -11 -11 -11 -11 -11 -10 -10 -10 -10 -10 -10 -10 -10 -10 -10 -10 -10 -10 -10 -10 -10 -10 -10 -10 -10 -10 -10 -10 -10 -10 -10 -10
-7 -8 -8 -9 -10 -10 -11 -11 -11 -12 -12 -11 -11 -11 -11 -10 -10 -10 -10 -10 -10 -10 -10 -10 -10 -10 -10 -10 -10 -10 -10 -10 -10 -10 -10 -10 -10 -10 -10 -10 -10 -10 -11 -11
-8 -9 -9 -10 -10 -11 -11 -12 -12 -12 -12 -12 -11 -11 -10 -10 -10 -10 -10 -10 -10 -10 -10 -10 -10 -10 -10 -11 -11 -11 -11 -11 -11 -11 -11 -11 -11 -11 -11 -11 -11 -11 -11 -11
Height
1483 1484 1486 1488 1493 1501 1507 1497 1504 1494 1502 1500 1501 1506 1509 1513 1517 1519 1521 1524 1525 1526 1526 1526 1525 1524 1523 1521 1518 1515 1512 1509 1506 1503 1500 1497 1493 1489 1484 1480 1476 1472 1468 1464
1503 1489 1491 1490 1490 1496 1495 1495 1498 1495 1496 1495 1499 1506 1511 1513 1516 1518 1519 1521 1523 1523 1522 1522 1520 1518 1517 1515 1512 1510 1507 1503 1501 1497 1493 1489 1485 1480 1476 1471 1467 1463 1459 1456
1489 1492 1498 1503 1488 1483 1486 1487 1485 1493 1487 1494 1502 1505 1509 1512 1515 1517 1519 1520 1520 1521 1519 1518 1517 1515 1512 1510 1507 1504 1500 1496 1493 1489 1485 1481 1476 1471 1466 1462 1457 1453 1450 1446
1508 1504 1507 1476 1475 1474 1479 1487 1488 1490 1492 1493 1498 1505 1509 1511 1513 1515 1516 1517 1517 1516 1514 1513 1511 1508 1506 1503 1499 1495 1492 1489 1485 1480 1475 1470 1466 1461 1456 1452 1447 1443 1438 1435
1495 1503 1481 1477 1478 1478 1477 1483 1486 1491 1495 1498 1502 1505 1510 1512 1513 1515 1514 1513 1512 1511 1509 1507 1505 1502 1498 1494 1491 1487 1484 1480 1476 1472 1466 1461 1455 1451 1446 1441 1436 1432 1428 1424
1498 1495 1483 1468 1471 1470 1471 1481 1483 1486 1493 1497 1501 1508 1510 1511 1512 1512 1512 1511 1508 1506 1504 1502 1499 1495 1491 1487 1483 1479 1476 1471 1467 1462 1456 1451 1447 1441 1436 1432 1426 1422 1417 1413
1476 1484 1473 1466 1468 1472 1480 1476 1481 1486 1491 1497 1501 1504 1507 1509 1510 1509 1507 1505 1503 1500 1498 1496 1493 1490 1485 1481 1476 1473 1468 1462 1457 1452 1447 1442 1436 1431 1427 1421 1415 1410 1406 1401
1471 1473 1469 1462 1470 1473 1473 1476 1480 1487 1492 1496 1499 1501 1503 1504 1504 1503 1502 1499 1498 1494 1491 1490 1488 1484 1478 1473 1469 1463 1457 1452 1447 1442 1437 1433 1428 1421 1417 1412 1405 1399 1395 1390
1458 1457 1461 1463 1463 1467 1471 1474 1483 1488 1493 1495 1498 1499 1500 1500 1500 1499 1497 1495 1493 1489 1485 1483 1480 1476 1470 1464 1459 1453 1448 1443 1438 1432 1427 1423 1418 1413 1407 1402 1397 1391 1386 1381
1455 1465 1465 1465 1469 1472 1477 1479 1485 1489 1492 1494 1495 1496 1497 1496 1496 1495 1492 1490 1487 1483 1479 1474 1471 1467 1463 1456 1450 1445 1440 1435 1429 1424 1418 1414 1410 1405 1398 1393 1388 1383 1378 1373
1469 1469 1470 1472 1473 1475 1479 1482 1486 1489 1491 1493 1494 1494 1493 1492 1490 1488 1486 1484 1481 1477 1472 1467 1462 1457 1453 1449 1444 1438 1433 1426 1421 1416 1410 1404 1399 1395 1390 1385 1381 1375 1370 1366
1463 1462 1463 1469 1474 1477 1480 1483 1486 1489 1491 1492 1491 1490 1489 1487 1486 1483 1480 1477 1473 1469 1464 1459 1454 1449 1446 1442 1438 1432 1424 1418 1414 1408 1402 1396 1389 1382 1380 1375 1370 1366 1362 1358
1455 1459 1462 1466 1473 1478 1481 1484 1486 1487 1488 1488 1487 1485 1484 1482 1480 1476 1474 1469 1465 1460 1456 1451 1447 1444 1440 1435 1430 1424 1417 1412 1407 1401 1394 1388 1382 1375 1366 1361 1359 1355 1351 1347
1457 1459 1466 1470 1474 1478 1481 1483 1485 1485 1485 1484 1483 1481 1479 1476 1473 1470 1466 1463 1458 1453 1449 1444 1440 1435 1432 1426 1422 1417 1412 1407 1401 1393 1388 1381 1375 1367 1360 1353 1346 1342 1341 1337
1461 1463 1466 1471 1475 1478 1480 1481 1482 1481 1480 1478 1477 1475 1474 1471 1467 1463 1460 1456 1450 1445 1441 1436 1431 1427 1423 1419 1415 1410 1405 1399 1394 1388 1382 1375 1368 1361 1355 1348 1342 1335 1330 1327
1463 1466 1469 1473 1476 1478 1479 1479 1477 1475 1474 1473 1472 1469 1467 1464 1460 1455 1452 1448 1443 1437 1434 1429 1424 1421 1418 1414 1410 1404 1399 1394 1389 1383 1375 1368 1361 1354 1349 1343 1337 1331 1325 1320
1464 1468 1470 1472 1474 1475 1475 1474 1473 1471 1469 1467 1466 1463 1459 1456 1452 1448 1445 1442 1438 1433 1429 1424 1420 1417 1413 1409 1405 1399 1394 1389 1384 1377 1370 1364 1358 1352 1346 1340 1334 1328 1322 1317
1466 1468 1470 1471 1472 1472 1471 1470 1468 1467 1464 1462 1459 1456 1453 1449 1445 1441 1439 1435 1432 1428 1424 1421 1417 1413 1409 1405 1400 1395 1390 1384 1378 1373 1367 1361 1357 1351 1344 1338 1333 1327 1321 1315
1467 1468 1469 1469 1469 1468 1467 1465 1462 1461 1459 1456 1452 1449 1446 1443 1440 1437 1434 1430 1427 1422 1419 1416 1412 1409 1404 1401 1396 1391 1385 1380 1375 1371 1366 1361 1355 1349 1344 1338 1333 1327 1321 1315
1466 1467 1466 1466 1465 1463 1460 1458 1457 1455 1453 1449 1446 1443 1441 1438 1436 1432 1430 1426 1423 1419 1415 1412 1408 1405 1401 1396 1392 1387 1382 1378 1374 1370 1365 1361 1356 1350 1345 1340 1335 1329 1323 1318
1464 1464 1463 1461 1459 1458 1456 1454 1451 1449 1447 1445 1442 1439 1436 1434 1431 1428 1424 1421 1418 1415 1412 1409 1405 1401 1397 1393 1388 1384 1380 1377 1373 1369 1366 1361 1357 1352 1347 1342 1337 1332 1326 1321
1460 1459 1458 1457 1455 1452 1451 1449 1446 1443 1441 1439 1437 1434 1431 1428 1425 1422 1421 1418 1414 1411 1409 1406 1402 1399 1395 1391 1387 1384 1380 1377 1374 1371 1367 1363 1359 1354 1350 1345 1341 1336 1331 1326
1456 1455 1453 1451 1448 1446 1444 1443 1440 1438 1436 1434 1431 1428 1426 1423 1421 1418 1414 1414 1411 1408 1406 1403 1400 1397 1394 1390 1387 1384 1382 1379 1376 1372 1369 1365 1362 1357 1353 1350 1346 1340 1335 1331
1453 1451 1448 1446 1444 1441 1439 1437 1435 1433 1431 1428 1426 1424 1421 1418 1417 1416 1413 1410 1408 1406 1403 1401 1399 1396 1394 1391 1388 1386 1384 1381 1378 1375 1372 1369 1365 1362 1359 1355 1350 1346 1342 1338
1448 1446 1444 1441 1439 1437 1434 1432 1430 1428 1426 1424 1422 1420 1418 1416 1414 1412 1410 1408 1406 1404 1402 1400 1398 1396 1395 1393 1391 1389 1387 1384 1381 1378 1376 1373 1370 1367 1363 1359 1355 1352 1348 1344
1444 1442 1439 1437 1435 1432 1429 1427 1425 1423 1421 1419 1418 1416 1415 1413 1411 1409 1408 1406 1404 1402 1401 1400 1398 1397 1395 1394 1393 1391 1389 1386 1385 1382 1380 1377 1374 1371 1367 1363 1360 1356 1352 1349
1440 1437 1435 1432 1430 1428 1426 1425 1422 1419 1418 1416 1414 1413 1411 1410 1409 1407 1406 1404 1403 1402 1401 1400 1399 1398 1397 1396 1394 1393 1391 1390 1388 1385 1383 1380 1377 1374 1371 1368 1364 1361 1357 1354
Wind_Speed
0 3 3 4 6 10 8 9 7 5 8 7 11 9 18 19 16 13 9 7 4 3 6 10 15 19 22 25 26 26 26 25 26 26 26 29 32 34 35 35 33 32 30 32
2 1 1 3 3 9 8 3 7 3 4 1 13 19 16 15 12 9 7 3 2 7 13 17 21 22 22 21 22 23 26 27 28 29 31 33 36 39 38 38 36 33 32 32
3 3 5 5 10 13 5 4 5 8 6 9 5 14 17 12 8 7 3 2 9 15 18 18 18 19 22 23 26 28 29 31 32 33 36 38 40 39 41 41 39 38 38 37
2 2 2 4 1 3 8 1 2 3 4 7 14 14 11 7 7 3 5 11 15 17 18 20 21 23 26 28 30 31 32 35 35 37 41 42 40 40 44 42 42 43 42 41
5 4 5 4 5 7 7 5 4 7 7 16 15 11 5 9 2 6 11 14 17 18 19 21 22 25 29 31 31 31 33 36 39 42 42 43 43 45 46 45 44 44 43 44
3 4 8 2 2 6 4 3 11 15 13 14 10 3 2 6 6 10 13 15 18 19 21 22 24 27 30 31 32 35 36 38 40 43 43 43 44 47 46 44 43 45 45 44
4 3 6 3 6 6 6 3 16 20 19 15 4 4 4 2 8 13 17 20 21 22 23 24 25 27 30 31 33 35 37 41 43 43 43 43 43 44 43 43 44 45 43 45
3 3 8 12 6 7 7 18 24 20 16 12 7 4 2 7 14 19 22 22 22 24 24 24 26 29 32 34 35 36 39 41 43 42 42 41 41 43 43 41 41 43 43 44
6 2 2 10 5 13 25 29 20 17 12 8 4 2 8 14 20 23 22 22 23 25 28 29 30 31 33 35 36 39 39 41 41 40 39 40 39 39 39 37 36 38 37 37
4 3 4 15 22 18 20 19 16 13 8 3 2 7 13 18 20 22 22 23 24 27 30 35 34 33 32 35 35 35 37 37 38 38 38 36 37 35 35 36 36 36 35 35
4 4 12 9 19 21 18 15 12 8 4 1 5 11 15 19 20 21 22 25 26 28 31 34 34 35 33 33 32 34 34 35 36 37 38 40 38 37 35 36 35 37 38 37
2 16 6 16 20 18 16 12 9 6 4 5 11 15 17 18 18 22 25 26 28 29 32 34 33 33 32 30 32 32 34 35 36 37 40 41 41 43 39 35 34 33 34 35
5 20 8 24 21 15 12 11 7 3 5 12 15 14 14 19 22 24 25 27 30 31 31 31 32 31 31 32 31 31 32 34 36 38 40 40 40 41 42 42 39 39 35 33
18 22 23 23 16 13 9 6 1 7 12 14 13 13 18 22 26 27 28 29 29 29 31 30 30 32 34 32 29 30 31 33 37 36 37 40 42 43 44 44 44 42 40 35
12 9 18 15 15 10 5 2 10 13 14 15 13 16 21 25 28 29 28 28 29 29 29 31 34 37 32 27 28 30 33 34 33 35 38 40 37 36 35 33 33 32 32 31
15 18 17 12 8 4 3 9 14 17 17 16 17 20 24 27 28 29 30 29 28 30 32 35 35 29 26 26 27 31 32 30 29 35 38 38 31 29 29 30 29 29 30 30
18 12 9 6 1 5 10 13 16 18 18 18 21 24 27 29 30 31 29 26 27 31 33 29 27 25 23 23 27 29 30 31 36 30 30 27 27 32 29 27 26 26 26 26
9 9 5 1 5 10 14 15 16 17 18 21 24 27 29 29 30 28 28 28 31 31 27 23 22 21 23 24 27 27 28 31 26 25 25 24 26 24 24 24 24 25 25 24
4 4 4 8 12 15 16 16 17 20 23 26 28 28 27 27 26 26 27 29 28 27 24 20 18 21 22 26 22 26 25 23 22 22 21 20 21 22 22 22 22 22 22 23
2 7 10 14 16 17 18 20 24 26 25 25 25 26 25 25 25 27 24 24 24 21 19 17 20 20 24 22 25 22 19 19 18 18 18 18 20 20 21 21 21 22 22 22
6 10 13 16 17 18 21 24 24 23 22 21 23 23 23 26 24 22 20 24 19 15 14 18 18 24 19 23 19 16 16 16 15 16 16 17 19 19 20 21 21 21 22 21
13 14 14 17 20 22 21 21 21 21 20 21 20 22 23 22 19 20 20 18 16 13 15 17 21 16 18 15 14 13 14 13 13 14 15 16 18 19 20 22 21 22 22 22
13 15 18 20 21 22 22 21 20 19 20 19 21 20 18 18 19 19 20 13 13 11 15 19 12 14 12 11 11 11 12 13 15 15 15 16 17 19 21 22 22 23 24 25
16 20 20 21 20 21 22 19 19 17 18 18 17 15 16 16 15 10 12 12 12 12 15 8 10 9 8 10 11 10 11 14 15 15 16 17 19 20 22 23 24 25 26 27
20 20 19 19 20 19 19 18 18 18 16 16 15 12 11 10 13 12 9 11 12 12 7 5 6 6 6 7 9 10 12 14 15 15 16 16 18 19 20 20 20 21 22 23
18 19 19 18 17 17 17 17 15 16 19 16 13 9 7 8 8 7 9 10 9 5 4 5 4 6 6 5 5 8 11 13 14 15 14 16 16 17 18 18 17 18 19 20
17 17 17 17 15 14 13 12 16 17 13 13 12 6 7 6 6 7 8 6 3 3 4 4 5 6 8 10 11 11 11 12 13 13 13 15 17 17 18 19 21 22 23 24
Wind_Direction
257 108 146 184 171 167 187 199 181 214 197 208 193 162 150 144 141 138 138 153 182 257 294 304 304 303 301 300 303 305 304 305 307 307 310 313 315 314 313 311 308 301 302 299
343 241 261 252 182 191 222 215 259 247 259 313 144 147 149 148 147 145 143 158 283 310 310 310 311 309 307 311 312 308 306 302 303 306 310 312 313 313 313 312 309 302 300 297
239 70 59 329 220 213 191 196 186 212 209 151 127 142 155 151 152 148 151 295 309 308 309 313 313 309 307 309 312 311 310 307 307 307 308 309 311 311 312 312 310 305 300 296
150 44 280 242 354 209 201 110 133 80 121 131 132 140 143 152 144 123 318 311 310 311 311 313 314 311 311 310 309 308 304 307 307 307 308 308 308 307 309 308 305 305 303 301
152 207 303 158 203 150 167 202 169 130 112 121 125 122 117 152 136 321 315 313 310 307 305 306 308 307 305 306 306 306 306 307 307 310 311 310 308 308 308 307 303 303 300 300
146 174 219 246 191 145 117 280 159 143 138 137 138 138 194 178 301 320 319 315 314 312 308 309 311 312 311 310 308 305 308 310 311 309 309 308 306 305 305 304 300 303 299 298
189 221 282 194 157 151 138 210 143 148 147 144 136 149 145 271 315 323 322 321 318 314 312 314 315 315 312 312 308 309 309 309 309 309 308 306 305 303 302 300 296 296 293 298
145 214 260 152 123 178 140 128 145 146 149 150 143 154 268 310 325 325 320 317 316 314 314 315 314 314 312 310 312 312 311 309 309 308 307 305 302 300 299 298 299 298 296 297
182 177 75 146 125 138 145 143 145 145 146 144 150 327 324 321 319 317 314 312 312 312 311 312 314 318 315 313 314 313 310 308 308 308 306 306 305 302 300 299 296 293 292 290
130 33 67 117 123 134 141 140 138 136 138 134 345 324 315 310 310 310 313 313 314 314 313 313 316 315 313 314 315 313 311 311 311 311 312 309 307 301 298 296 294 292 290 289
71 71 103 127 146 140 132 131 133 135 138 158 301 307 307 308 310 313 314 313 314 313 313 313 316 316 319 319 318 315 313 313 314 315 314 314 312 307 299 296 293 292 290 291
180 177 160 179 156 146 140 144 149 158 190 288 310 312 311 310 313 314 313 315 314 314 316 316 317 317 319 320 321 317 315 316 316 315 316 315 310 308 309 302 298 294 292 291
164 173 169 159 153 152 151 152 163 198 307 315 315 311 311 312 315 316 315 316 317 318 317 316 317 316 320 323 321 317 316 316 316 316 316 312 312 312 307 311 310 309 302 298
139 131 125 146 152 151 151 155 217 313 313 311 309 309 315 317 317 318 318 318 318 316 316 317 317 320 324 322 319 318 317 315 316 319 316 317 316 311 309 304 302 301 310 305
126 137 147 141 143 148 150 295 308 310 314 314 307 313 318 318 318 317 317 319 318 317 319 322 321 320 322 320 319 320 320 321 321 316 319 317 312 312 311 313 309 311 314 311
126 122 127 129 132 144 293 312 316 319 318 310 308 311 314 316 317 317 320 321 320 321 321 321 320 321 320 320 323 325 322 321 322 318 314 318 326 328 329 325 325 325 322 318
135 133 130 119 60 318 319 319 316 314 311 308 307 310 315 318 316 319 321 320 317 317 319 319 317 319 321 325 325 322 329 323 320 324 329 336 333 331 322 330 334 334 336 331
123 129 133 352 321 316 316 314 313 311 309 309 309 311 314 316 318 319 317 316 315 317 320 318 319 322 325 324 325 327 318 322 328 335 339 342 339 332 344 346 347 347 346 348
135 184 262 309 318 315 313 314 315 312 311 310 310 312 314 314 314 314 314 313 315 319 321 322 327 327 327 327 328 322 327 330 336 342 348 354 354 360 358 0 359 359 360 2
237 261 274 299 309 313 314 314 311 309 310 308 308 310 311 311 312 312 312 311 315 318 319 328 330 325 331 329 329 332 334 341 346 353 2 4 8 10 12 15 14 15 16 16
303 296 297 304 306 307 307 309 308 308 307 306 309 308 307 308 311 309 310 315 325 324 328 328 328 330 328 329 336 341 349 353 358 4 7 13 15 19 22 23 23 24 24 26
305 305 302 301 303 306 308 308 307 305 304 307 304 304 307 308 311 309 313 316 322 330 332 328 330 333 330 340 350 359 4 9 15 16 21 25 26 28 31 32 31 35 35 36
302 303 304 307 308 310 311 310 307 304 305 305 307 309 307 308 308 312 317 333 327 334 318 325 334 336 348 1 11 18 24 31 34 34 36 36 35 40 43 43 41 44 43 41
307 308 309 309 309 309 308 308 309 309 308 309 310 306 305 307 310 317 313 319 322 320 325 337 336 352 10 26 33 39 44 47 47 45 48 47 53 54 52 51 48 48 49 48
309 310 310 310 310 311 310 312 310 312 311 312 313 311 304 302 307 322 318 323 325 326 337 345 353 12 28 42 48 61 61 56 51 51 51 59 49 46 44 43 46 44 44 44
312 313 313 312 311 311 310 311 314 312 314 315 317 315 311 311 309 315 322 323 328 342 358 357 23 36 34 50 77 72 68 68 62 58 54 46 40 33 33 35 36 32 33 35
312 314 315 313 315 314 313 314 303 307 310 314 317 321 323 324 321 322 328 337 4 30 34 47 60 61 70 74 71 72 76 62 55 53 45 35 33 39 46 48 47 46 44 43